Regional Weather Roundup
Issued by NWS

Home | Current Version | Previous Version | Graphics & Text | Print | Product List | Glossary Off
Versions: 1 2 3 4 5 6 7 8 9 10 11 12 13 14 15 16 17 18 19 20 21 22 23 24 25 26 27 28 29 30 31 32 33 34 35 36 37 38 39 40 41 42 43 44 45 46 47 48 49 50

000
ASUS43 KDMX 081203
RWRIA

WEATHER ROUNDUP FOR IOWA
NATIONAL WEATHER SERVICE DES MOINES IA
600 AM CST MON FEB 08 2016

NOTE: "FAIR" INDICATES FEW OR NO CLOUDS BELOW 12,000 FEET WITH NO
SIGNIFICANT WEATHER AND/OR OBSTRUCTIONS TO VISIBILITY.

* - THESE STATIONS ARE NOT NWS STATIONS...THUS NOT UNDER NWS
QUALITY CONTROL.  THEY ALSO DO NOT REPORT WEATHER SUCH
AS PRECIPITATION OR FOG.

IAZ001>003-012>014-020>022-031>034-043>046-081300-
   NORTHWEST IOWA

CITY           SKY/WX    TMP DP  RH WIND       PRES   REMARKS
CARROLL *      LGT SNOW  19  14  79 NW33G44   29.94R WCI   0
CHEROKEE *     LGT SNOW  19  16  86 N24G31    29.98R WCI   2
DENISON *      SNOW      21  19  93 NW26G39   29.95R VSB 1/4 WCI   4
LE MARS *      LGT SNOW  23  23 100 N23G31    30.03R WCI   7
ORANGE CITY *    N/A    N/A N/A N/A N23G29    29.98R
SHELDON *      LGT SNOW  18  16  93 N35G43    29.96R VSB 3/4 WCI  -3
SIOUX CITY     CLOUDY    26  18  71 N24G37    30.02R WCI  11
6HR MIN TEMP:  26; 6HR MAX TEMP:  30; 6HR PCP: TRACE;

SPENCER        LGT SNOW  15  10  80 NW31G41   29.94R VSB 1   WCI  -6
6HR MIN TEMP:  15; 6HR MAX TEMP:  19; 6HR PCP: TRACE;

STORM LAKE *   FLURRIES  18  14  86 NW32G41   29.93R WCI  -3
$$

IAZ055>058-069>071-079>083-090>094-081300-
   SOUTHWEST IOWA

CITY           SKY/WX    TMP DP  RH WIND       PRES   REMARKS
ATLANTIC *     LGT SNOW  23  19  86 N25G36    29.97R WCI   7
AUDUBON *      LGT SNOW  21  16  79 NW17G35   29.94S WCI   7
CLARINDA *     FLURRIES  28  21  74 NW18G25   30.00R WCI  16
COUNCIL BLFS * CLOUDY    27  21  80 N25G33    29.99R WCI  11
CRESTON *      LGT SNOW  21  16  79 NW25G33   29.93R WCI   4
HARLAN  *      SNOW      21  21 100 N33G47    30.00R VSB 1/2 WCI   2
LAMONI         FLURRIES  22  15  75 NW28G38   29.91S WCI   4
6HR MIN TEMP:  22; 6HR MAX TEMP:  30; 6HR PCP: TRACE;

RED OAK *      CLOUDY    27  19  74 NW26G37   29.98S WCI  11
SHENANDOAH *   CLOUDY    30  23  74 NW25G36   30.01R WCI  16
$$

IAZ047>049-059>061-072>074-084-081300-
   CENTRAL IOWA

CITY           SKY/WX    TMP DP  RH WIND       PRES   REMARKS
AMES           LGT SNOW  15  11  83 NW32G43   29.88R VSB 3/4 WCI  -6
6HR MIN TEMP:  15; 6HR MAX TEMP:  27; 6HR PCP: TRACE;

ANKENY *       LGT SNOW  18  12  79 NW25G37   29.89R WCI  -1
BOONE *        LGT SNOW  16   9  73 NW24G35   29.87R WCI  -3
CHARITON *     LGT SNOW  19  14  79 NW24G36   29.88R WCI   2
DES MOINES     LGT SNOW  19  11  70 NW25G38   29.90R BLWGSNOWWCI   1
6HR MIN TEMP:  19; 6HR MAX TEMP:  29; 6HR PCP: TRACE;

GRINNELL*      FLURRIES  16  12  86 NW31G38   29.82S WCI  -5
KNOXVILLE *    FLURRIES  19  12  73 NW23G33   29.85R WCI   2
MARSHALLTOWN   CLOUDY    15   9  76 NW30G39   29.83R WCI  -5
6HR MIN TEMP:  15; 6HR MAX TEMP:  27; 6HR PCP: TRACE;

NEWTON *       LGT SNOW  16  12  86 NW31G39   29.85R WCI  -5
PELLA *        LGT SNOW  18  12  79 NW25G33   29.87R WCI  -1
$$

IAZ004>006-015-016-023>025-035-036-081300-
   NORTH CENTRAL IOWA

CITY           SKY/WX    TMP DP  RH WIND       PRES   REMARKS
ALGONA *       SNOW      14  10  85 N31G51    29.87R VSB 1/4 WCI  -7
CLARION *      CLOUDY    14   7  73 N29G44    29.86R WCI  -7
ESTHERVILLE    FOG       12  10  92 NW36G47   29.91R VSB<1/4 WCI -11
6HR MIN TEMP:  12; 6HR MAX TEMP:  18; 6HR PCP:  0.26;

FORT DODGE *   CLOUDY    16   9  73 NW16G31   29.90R WCI   0
MASON CITY     SNOW      12   8  84 NW33G40   29.83R VSB 1/2 WCI -10
6HR MIN TEMP:  12; 6HR MAX TEMP:  19; 6HR PCP:  0.02;

FOREST CITY *  LGT SNOW  12  10  92 NW29G35   29.82S VSB 3/4 WCI  -9
WEBSTER CITY * LGT SNOW  14  12  92 NW32G39   29.86R VSB 3/4 WCI  -7
IOWA FALLS *   LGT SNOW  14  11  86 NW26G36   29.84S WCI  -5
$$

IAZ007>011-017>019-026>030-037>042-050>054-066-081300-
   NORTHEAST IOWA

CITY           SKY/WX    TMP DP  RH WIND       PRES   REMARKS
CEDAR RAPIDS   FLURRIES  17  13  84 NW23G32   29.76R WCI  -1
6HR MIN TEMP:  17; 6HR MAX TEMP:  31; 6HR PCP: TRACE;

CHARLES CITY * FLURRIES  14  12  92 NW16G22   29.79R WCI  -2
CLINTON *      FLURRIES  20  16  84 W16       29.72R WCI   6
DECORAH *      FLURRIES  16  10  79 NW16G23   29.72R WCI   0
DUBUQUE        CLOUDY    18  12  77 NW21      29.69R WCI   1
6HR MIN TEMP:  18; 6HR MAX TEMP:  31; 6HR PCP: TRACE;

MONTICELLO *   FLURRIES  18  10  73 NW15G25   29.74R WCI   3
OELWEIN *      LGT SNOW  16  10  79 NW24      29.75R WCI  -3
WATERLOO       FLURRIES  15   9  76 NW20G29   29.80R WCI  -2
6HR MIN TEMP:  15; 6HR MAX TEMP:  21; 6HR PCP: TRACE;

$$

IAZ064-065-067-068-078-081300-
   EAST CENTRAL IOWA

CITY           SKY/WX    TMP DP  RH WIND       PRES   REMARKS
DAVENPORT      LGT SNOW  20  15  81 NW20G26   29.74R WCI   4
6HR MIN TEMP:  20; 6HR MAX TEMP:  33; 6HR PCP: TRACE;

IOWA CITY      FLURRIES  19  12  74 NW15G24   29.80R WCI   5
6HR MIN TEMP:  19; 6HR MAX TEMP:  33; 6HR PCP: TRACE;

MT. PLEASANT * CLOUDY    25  18  74 NW15G25   29.80S WCI  12
MUSCATINE *    MOCLDY    21  14  73 NW18G24   29.79R WCI   6
QUAD CITIES    LGT SNOW  22  17  81 W15       29.74R WCI   9
6HR MIN TEMP:  22; 6HR MAX TEMP:  34; 6HR PCP:  0.04;

$$

IAZ062-063-075>077-085>089-095>099-081300-
   SOUTHEAST IOWA

CITY           SKY/WX    TMP DP  RH WIND       PRES   REMARKS
BURLINGTON     CLOUDY    22  17  81 NW13G25   29.78S WCI  10
6HR MIN TEMP:  21; 6HR MAX TEMP:  34; 6HR PCP:  0.02;

FAIRFIELD *    FLURRIES  19  14  79 NW22G30   29.81R WCI   3
FORT MADISON * LGT SNOW  21  18  86 NW16G24   29.80R WCI   7
KEOKUK *       LGT SNOW  23  19  86 NW13G21   29.81R WCI  11
OSKALOOSA *    LGT SNOW  19  14  79 NW24G35   29.84R WCI   2
OTTUMWA        FLURRIES  19  14  81 NW25G35   29.84R WCI   1
6HR MIN TEMP:  19; 6HR MAX TEMP:  32; 6HR PCP: TRACE;

WASHINGTON *   CLOUDY    19  14  79 NW18G28   29.81S WCI   4
$$

ABBREVIATIONS USED IN REMARKS
   TC - TEMPERATURES IN CELSIUS
  WCI - WIND CHILL INDEX
   HX - HEAT INDEX
  VSB - VISIBILITY
$$




USA.gov is the U.S. government's official web portal to all federal, state and local government web resources and services.